Wind_Speed
20 19 18 18 19 18 16 16 16 15 14 14 13 12 11 10 10 9 8 8 7 6 5 5 5 6 7 8 8 8 9 8 8 9 9 9 9 9 8 8 9 9 8 8 9 9 10 10 10
19 19 18 19 18 16 16 16 15 15 15 14 13 12 12 11 10 10 9 8 8 7 6 5 6 6 7 8 8 8 8 8 8 9 9 9 9 9 9 9 10 9 9 9 10 10 10 10 9
19 18 19 19 17 16 15 15 15 15 15 14 13 12 11 11 10 10 9 9 8 8 7 7 6 7 7 8 8 8 8 8 8 9 9 9 9 9 9 9 10 10 10 10 10 10 10 9 9
18 18 20 18 17 16 15 15 15 15 15 14 13 12 11 11 11 10 9 9 9 9 7 6 6 6 7 8 9 9 9 8 8 9 9 9 10 10 10 10 9 10 10 10 10 10 10 9 8
18 19 18 16 16 16 16 15 15 15 15 15 14 13 12 12 11 10 9 10 10 8 7 7 6 7 7 9 9 9 9 9 8 10 10 10 10 10 10 10 9 9 10 10 10 10 10 9 8
18 18 16 15 16 16 16 16 16 15 15 15 15 14 13 12 12 10 10 10 9 9 8 8 8 8 8 8 9 10 9 9 9 10 11 10 9 10 9 9 9 9 9 9 10 9 9 8 8
16 17 16 15 16 16 16 16 16 16 15 15 15 15 14 13 12 11 10 10 9 9 10 10 9 9 9 9 10 10 10 9 9 10 10 11 10 10 9 9 8 8 8 9 8 9 8 7 7
15 15 14 15 15 16 16 16 17 16 16 15 15 15 14 14 13 12 12 11 10 10 10 10 10 10 10 10 10 9 9 9 9 8 10 11 10 9 9 9 8 8 8 8 7 8 9 8 7
14 14 12 14 15 15 16 17 17 17 16 16 16 16 15 14 14 13 12 11 11 10 10 10 10 11 11 11 10 10 10 10 9 9 9 10 10 9 8 8 8 8 8 7 8 8 8 7 6
12 12 11 13 14 15 16 17 17 17 16 16 16 16 16 15 14 13 12 11 11 11 10 10 10 11 11 11 10 10 10 10 10 10 9 9 9 9 9 8 8 8 7 7 8 8 7 6 5
10 10 10 12 13 14 16 17 17 17 16 16 16 16 16 16 15 14 13 12 12 12 11 11 11 11 11 11 10 10 9 10 10 10 10 9 9 9 8 7 7 6 7 7 7 6 6 6 6
8 8 9 10 11 13 14 16 16 16 16 16 16 16 16 15 15 15 14 13 12 12 11 11 10 9 10 10 9 9 9 9 10 10 10 9 8 8 7 6 6 5 6 6 6 5 5 5 4
6 6 8 8 10 11 13 15 15 15 15 16 16 16 15 15 15 14 13 13 12 11 11 10 9 9 9 9 8 9 9 9 9 9 8 9 8 7 6 5 5 5 6 6 5 5 5 4 3
5 5 6 7 9 10 12 13 14 15 15 15 16 15 15 14 15 14 13 12 12 11 11 10 10 9 9 8 8 8 8 8 8 8 8 7 7 5 5 5 5 5 5 4 4 4 4 4 3
3 4 5 6 7 8 10 12 12 13 14 14 14 15 15 14 14 14 13 12 11 11 11 10 10 10 9 9 8 8 7 7 7 7 7 7 7 6 5 5 5 4 3 3 3 3 3 3 2
2 3 4 5 6 6 8 10 10 12 13 13 13 13 14 13 13 13 12 12 11 11 11 10 10 9 9 9 8 8 7 6 7 7 7 7 7 6 5 5 3 3 2 2 2 2 1 1 2
2 1 0 2 4 5 6 7 8 9 11 12 12 12 12 12 12 12 12 11 11 10 10 10 10 10 10 10 9 8 7 7 7 6 6 6 6 6 6 5 3 2 1 1 1 2 2 3 3
6 4 2 0 1 2 4 5 5 7 8 10 11 12 11 11 12 11 11 11 10 10 10 10 10 10 10 9 9 8 8 8 8 7 6 6 6 5 6 5 4 3 2 1 0 1 2 3 2
9 7 5 3 1 0 2 3 4 5 6 8 9 10 11 11 11 10 10 10 10 9 9 9 10 10 10 10 9 8 8 7 7 7 6 5 5 5 6 5 4 3 1 0 1 2 2 2 2
10 9 7 6 3 2 0 1 3 4 5 6 7 8 9 9 9 9 9 9 9 8 8 8 8 9 9 9 9 8 7 7 6 6 6 6 5 4 4 4 3 2 1 1 1 2 2 2 2
12 10 10 8 6 4 3 2 3 4 4 5 6 6 7 8 8 8 7 8 8 8 7 7 7 8 8 8 8 8 7 6 6 5 5 5 5 5 5 4 3 3 2 2 2 3 3 3 3
14 12 12 10 8 6 5 4 5 4 4 4 4 5 6 6 6 6 6 6 7 7 7 7 7 7 8 7 7 7 7 6 6 5 5 5 5 4 4 4 4 4 3 3 3 4 4 4 4
17 15 13 12 10 9 8 6 6 5 3 4 4 4 4 5 5 5 5 6 6 6 6 6 6 6 7 6 6 6 6 6 5 5 5 5 4 4 4 4 4 4 4 4 4 4 5 6 6
19 18 16 14 12 12 11 8 7 6 4 4 4 4 4 5 5 4 4 5 5 5 5 6 6 5 6 6 5 5 5 4 4 4 4 4 4 4 4 4 4 4 5 5 6 6 7 7 7
22 19 17 16 15 15 13 11 9 8 6 5 4 4 4 4 4 4 4 4 4 4 4 4 4 4 4 5 4 4 4 4 3 3 4 4 4 5 5 5 5 5 6 6 7 8 8 8 9
24 22 21 18 16 16 16 14 11 10 8 7 6 5 5 4 4 4 5 4 4 4 4 4 4 4 5 5 4 4 4 4 4 4 4 4 5 5 6 6 5 6 7 7 8 9 9 10 10
26 25 23 21 19 18 17 15 13 12 10 9 8 7 6 6 5 5 5 4 4 4 4 4 4 5 5 5 5 5 4 5 5 5 5 5 5 6 6 7 7 7 8 8 9 10 10 11 12
28 26 25 24 22 20 19 17 15 14 12 11 10 10 9 8 7 7 6 6 5 5 5 5 5 6 6 6 6 6 6 6 6 6 6 6 6 7 8 8 8 8 9 9 9 10 12 12 13
29 28 27 26 24 21 20 19 18 16 15 14 13 12 11 11 10 9 9 8 8 7 6 6 6 7 7 7 7 7 7 7 7 7 7 7 7 8 8 8 9 10 10 10 11 11 13 13 14
30 29 28 27 27 25 23 21 20 19 17 16 16 15 14 14 13 12 11 11 10 10 9 8 8 8 9 9 8 8 7 7 8 8 8 8 8 8 9 10 10 11 11 12 12 13 13 14 14
Wind_Direction
64 63 63 66 64 63 63 64 65 64 62 64 66 66 65 68 69 72 72 72 74 74 81 100 116 125 129 127 128 129 135 134 128 128 131 134 138 140 141 143 138 137 137 137 137 141 144 145 147
63 63 64 64 63 60 59 59 60 60 59 61 64 65 64 67 69 70 71 72 72 74 80 101 114 115 121 124 123 126 132 135 132 134 136 135 138 142 146 146 142 140 139 138 141 141 139 139 146
64 64 64 63 61 59 58 58 58 57 58 60 62 63 65 66 66 68 71 74 79 83 86 97 105 109 114 118 121 123 128 133 135 137 136 137 142 143 145 147 146 142 141 142 142 143 143 143 146
64 65 63 62 59 57 57 57 58 58 58 60 60 59 60 61 63 66 71 76 81 86 88 91 96 110 116 119 120 120 125 129 134 133 136 139 143 144 144 147 148 146 147 146 146 148 146 148 151
65 64 62 60 57 56 55 56 58 59 58 61 60 58 60 62 62 66 71 73 77 79 80 90 96 103 109 115 118 122 124 128 130 128 134 137 144 146 145 145 148 150 155 154 151 155 151 151 154
66 64 63 61 57 55 56 56 57 58 58 61 61 60 61 62 64 70 76 76 77 80 85 89 96 96 103 107 115 120 126 129 125 123 128 131 136 140 144 146 149 151 155 155 153 157 155 155 159
67 65 61 61 58 54 54 55 57 57 61 63 62 60 59 63 67 74 77 76 79 81 86 86 91 92 98 104 110 118 120 121 126 127 128 130 134 138 142 143 144 141 145 150 151 157 161 159 163
66 63 59 60 58 55 53 54 57 57 62 63 63 61 59 62 66 71 74 73 75 79 85 83 84 89 93 96 102 105 110 114 118 127 129 130 134 135 139 140 139 141 147 151 154 157 158 162 167
67 65 62 64 59 55 53 54 56 56 61 62 61 59 58 58 64 67 69 67 71 76 83 85 86 87 93 97 100 102 104 108 109 118 123 128 132 135 136 138 135 138 144 148 154 157 158 160 164
70 66 64 64 61 57 54 53 55 56 60 62 60 59 56 56 62 63 64 66 67 72 77 82 86 88 87 93 97 100 102 102 107 110 114 123 128 131 133 135 136 141 146 152 157 160 162 161 164
71 66 64 62 62 60 56 53 53 55 60 61 60 59 57 58 60 62 64 66 66 71 75 80 85 90 90 92 96 98 100 102 105 107 112 116 123 127 128 134 142 148 154 160 166 165 165 169 170
72 65 63 63 61 61 59 55 52 55 59 60 60 58 59 59 61 63 64 67 72 74 76 81 81 85 91 92 94 96 97 101 107 111 114 117 122 124 125 129 144 157 161 161 160 161 169 169 174
70 66 63 65 61 61 60 57 54 56 58 59 60 60 59 58 60 62 63 65 71 75 78 79 78 79 84 87 94 95 98 104 109 113 115 120 121 121 121 128 142 156 162 172 176 168 174 179 171
74 62 57 64 60 59 60 57 54 56 58 58 59 59 58 57 58 60 63 65 68 72 76 75 73 76 79 81 89 95 98 104 106 110 114 117 121 124 130 140 142 151 163 178 189 187 185 191 189
93 67 59 60 55 55 58 58 54 55 58 60 57 57 56 57 57 59 61 63 67 70 71 72 72 72 76 79 86 87 87 92 102 105 108 116 123 122 134 136 139 147 160 175 184 207 226 218 219
130 75 49 52 52 50 58 61 57 54 55 58 58 55 54 55 55 57 59 61 66 69 69 69 71 71 73 76 81 84 85 89 97 100 104 106 109 110 121 131 138 147 163 180 194 216 238 247 242
193 167 107 36 44 44 56 61 59 54 53 52 53 53 51 52 52 55 58 59 64 65 67 68 68 70 73 75 77 80 81 78 84 92 98 101 103 106 101 106 117 132 147 176 223 265 270 268 262
218 214 223 278 38 42 50 56 53 48 48 49 48 49 48 49 49 52 55 57 60 63 65 66 65 66 70 72 74 76 76 73 72 80 88 90 91 91 87 84 83 84 74 86 335 307 293 272 271
217 218 224 227 212 69 53 48 38 36 40 45 44 44 45 45 47 48 51 53 56 59 62 64 66 65 66 69 72 74 74 71 70 70 73 81 84 85 79 74 71 62 45 80 348 349 324 314 302
223 222 228 235 227 222 236 7 11 16 26 38 39 39 40 39 42 45 48 51 53 58 58 58 62 64 66 66 68 71 71 71 68 66 65 68 73 79 72 55 43 18 347 337 326 330 323 331 334
227 227 229 236 239 248 248 285 315 339 356 19 26 30 31 33 35 37 41 46 50 55 57 60 61 62 62 63 64 62 64 68 67 66 69 66 63 61 54 46 42 40 29 17 11 8 350 347 344
230 231 233 237 243 254 252 261 289 306 324 353 3 13 20 23 26 28 33 37 43 51 55 57 60 58 57 57 58 58 62 68 69 67 69 64 57 52 45 40 38 34 31 21 10 358 346 337 340
233 238 239 240 244 251 254 248 268 283 299 324 334 337 357 6 10 21 26 28 33 41 45 51 54 53 54 54 54 56 58 62 62 61 58 52 44 40 39 41 37 23 13 5 351 345 348 344 337
234 237 240 244 245 248 250 248 254 271 283 297 313 317 324 338 349 360 10 14 21 30 38 44 42 45 48 46 45 49 50 52 51 45 38 32 23 15 13 16 12 2 357 349 343 337 333 334 332
231 232 237 240 242 245 249 247 245 253 262 272 290 299 314 328 330 331 341 352 2 15 23 28 26 28 31 31 29 32 37 35 26 14 9 6 6 2 353 350 343 341 339 334 331 331 327 328 327
231 230 230 234 242 250 252 247 246 248 251 256 266 276 287 305 310 311 318 327 336 349 2 8 9 4 2 3 6 9 12 15 10 360 350 345 343 345 345 345 337 329 331 327 324 325 326 325 324
232 231 231 237 242 245 247 250 250 246 248 252 258 265 272 283 294 302 306 305 310 320 329 337 341 346 346 346 347 350 352 354 349 343 337 335 336 338 339 339 338 333 330 327 326 326 326 325 322
231 232 233 233 237 242 246 248 246 249 250 250 254 260 263 270 280 288 296 293 291 298 307 314 317 323 330 333 330 330 331 338 340 336 335 334 331 330 333 333 333 331 329 327 326 325 324 321 319
232 233 234 237 238 241 246 250 251 254 250 248 251 257 259 266 273 277 282 283 279 282 291 300 303 307 315 319 321 319 320 323 328 331 330 328 328 328 327 327 326 324 321 320 319 320 320 319 317
234 235 236 237 240 242 244 248 250 253 250 247 246 251 256 262 268 270 272 274 275 276 280 289 293 297 305 309 311 312 311 315 318 319 320 321 321 322 323 323 322 322 322 320 318 317 317 317 317
Height
5892 5891 5890 5890 5889 5889 5887 5885 5883 5881 5880 5878 5876 5875 5874 5873 5872 5873 5869 5867 5866 5865 5864 5864 5864 5864 5864 5864 5864 5865 5866 5866 5867 5867 5868 5868 5869 5870 5870 5871 5872 5873 5873 5874 5874 5875 5876 5877 5879
5894 5893 5893 5892 5892 5891 5889 5887 5885 5883 5881 5879 5877 5876 5875 5873 5872 5871 5869 5868 5867 5866 5865 5865 5865 5865 5865 5865 5865 5866 5866 5867 5867 5868 5868 5869 5870 5870 5871 5872 5873 5874 5875 5875 5876 5877 5878 5879 5880
5896 5895 5895 5895 5894 5893 5891 5888 5886 5884 5882 5880 5879 5878 5876 5875 5873 5871 5870 5869 5868 5867 5866 5866 5866 5866 5865 5866 5866 5867 5867 5867 5868 5868 5869 5870 5870 5871 5872 5873 5874 5875 5876 5876 5877 5878 5879 5880 5881
5899 5898 5898 5898 5896 5894 5892 5890 5887 5885 5883 5881 5880 5879 5877 5876 5874 5873 5871 5870 5869 5868 5868 5867 5867 5867 5866 5866 5867 5867 5868 5868 5868 5869 5869 5870 5871 5872 5873 5873 5874 5875 5876 5877 5878 5879 5880 5881 5883
5901 5901 5902 5900 5898 5896 5894 5891 5889 5887 5885 5883 5882 5880 5879 5877 5875 5874 5872 5871 5870 5870 5869 5868 5868 5868 5867 5867 5867 5868 5868 5869 5869 5869 5870 5870 5871 5873 5873 5874 5875 5876 5877 5878 5878 5880 5881 5882 5883
5904 5904 5905 5903 5901 5898 5896 5893 5891 5889 5887 5885 5883 5882 5880 5878 5877 5875 5874 5873 5872 5871 5870 5870 5869 5869 5869 5869 5868 5869 5869 5869 5870 5870 5871 5871 5872 5873 5874 5875 5876 5877 5877 5878 5879 5881 5882 5883 5884
5907 5907 5906 5904 5902 5900 5898 5895 5893 5891 5889 5887 5885 5884 5882 5880 5878 5877 5876 5875 5874 5873 5872 5871 5871 5870 5870 5870 5870 5870 5870 5870 5871 5871 5871 5872 5872 5873 5875 5876 5876 5877 5878 5879 5880 5881 5882 5883 5884
5908 5909 5908 5907 5904 5902 5900 5897 5895 5893 5891 5889 5888 5886 5884 5882 5880 5878 5878 5876 5876 5875 5874 5873 5872 5872 5872 5871 5871 5871 5871 5872 5872 5872 5872 5872 5873 5874 5875 5876 5877 5877 5878 5879 5880 5881 5882 5883 5884
5910 5912 5911 5909 5907 5905 5902 5899 5897 5895 5893 5891 5890 5888 5886 5884 5882 5881 5880 5879 5878 5877 5876 5876 5875 5874 5874 5874 5873 5873 5873 5873 5873 5873 5872 5873 5874 5875 5876 5877 5877 5878 5879 5880 5881 5882 5883 5883 5884
5913 5914 5912 5910 5908 5906 5904 5902 5899 5897 5895 5893 5892 5890 5888 5886 5884 5883 5882 5881 5880 5879 5878 5878 5877 5876 5876 5875 5875 5875 5875 5874 5874 5874 5873 5873 5874 5876 5877 5877 5878 5879 5880 5881 5881 5882 5883 5884 5884
5914 5914 5913 5911 5910 5908 5906 5904 5902 5900 5898 5896 5894 5892 5890 5889 5887 5886 5885 5884 5883 5882 5881 5880 5879 5879 5878 5878 5877 5877 5876 5876 5875 5875 5874 5875 5875 5877 5878 5878 5879 5880 5881 5881 5882 5882 5883 5884 5884
5916 5915 5914 5913 5911 5910 5908 5906 5904 5902 5901 5898 5896 5894 5893 5892 5890 5889 5888 5886 5885 5884 5883 5883 5882 5881 5880 5880 5879 5879 5878 5878 5877 5877 5877 5877 5877 5878 5879 5880 5880 5881 5881 5882 5882 5883 5883 5884 5884
5917 5916 5915 5915 5913 5912 5910 5909 5907 5904 5903 5901 5899 5897 5896 5895 5893 5891 5890 5889 5888 5887 5886 5885 5884 5883 5882 5882 5881 5880 5880 5880 5879 5879 5879 5879 5880 5880 5880 5881 5881 5881 5882 5883 5883 5883 5884 5884 5884
5918 5918 5917 5916 5915 5914 5912 5911 5909 5907 5905 5903 5902 5900 5899 5897 5896 5894 5893 5892 5890 5889 5888 5887 5886 5885 5884 5884 5883 5882 5882 5881 5881 5881 5881 5881 5881 5881 5882 5882 5882 5882 5883 5883 5883 5884 5884 5885 5885
5918 5919 5919 5918 5917 5915 5914 5913 5911 5910 5908 5906 5904 5903 5901 5900 5898 5897 5895 5894 5893 5891 5890 5889 5888 5887 5886 5886 5885 5884 5883 5883 5882 5882 5882 5882 5882 5882 5882 5883 5883 5883 5883 5884 5884 5884 5884 5884 5884
5919 5920 5920 5919 5918 5917 5917 5916 5914 5912 5910 5909 5907 5905 5904 5902 5900 5899 5898 5896 5895 5894 5892 5891 5890 5889 5888 5887 5886 5886 5885 5885 5884 5884 5884 5884 5883 5883 5883 5883 5883 5884 5884 5884 5884 5884 5884 5884 5884
5920 5921 5921 5921 5919 5918 5918 5917 5916 5914 5913 5911 5909 5908 5906 5904 5903 5901 5900 5898 5897 5896 5895 5893 5892 5891 5890 5889 5888 5888 5887 5887 5886 5886 5885 5885 5885 5885 5885 5884 5884 5884 5884 5884 5884 5885 5884 5884 5884
5921 5921 5921 5921 5920 5919 5918 5918 5917 5916 5914 5913 5912 5910 5908 5907 5905 5903 5902 5900 5899 5898 5897 5896 5894 5893 5892 5891 5890 5889 5889 5888 5888 5887 5887 5887 5886 5886 5886 5885 5885 5885 5885 5885 5885 5885 5884 5884 5883
5919 5920 5921 5920 5919 5919 5919 5919 5918 5917 5916 5915 5913 5912 5910 5909 5907 5906 5904 5903 5901 5900 5899 5898 5897 5895 5894 5893 5892 5891 5891 5890 5889 5889 5888 5888 5888 5887 5887 5886 5886 5885 5885 5885 5885 5885 5884 5884 5883
5916 5918 5919 5919 5919 5919 5919 5919 5919 5918 5917 5916 5915 5913 5912 5911 5909 5908 5906 5905 5903 5902 5901 5900 5898 5897 5896 5895 5894 5893 5893 5892 5891 5890 5890 5889 5888 5888 5887 5887 5886 5886 5886 5886 5885 5885 5884 5883 5883
5914 5916 5917 5918 5918 5918 5919 5920 5919 5918 5917 5917 5916 5914 5913 5912 5911 5909 5908 5906 5905 5904 5902 5901 5900 5899 5898 5897 5896 5895 5894 5893 5892 5892 5891 5890 5889 5889 5888 5888 5887 5887 5886 5886 5885 5885 5884 5883 5882
5912 5913 5915 5916 5917 5918 5919 5921 5919 5918 5917 5917 5916 5915 5914 5913 5912 5910 5909 5908 5906 5905 5904 5903 5901 5900 5899 5898 5897 5896 5895 5894 5893 5893 5892 5891 5890 5890 5889 5888 5888 5887 5887 5886 5885 5885 5884 5883 5882
5909 5911 5912 5914 5915 5917 5917 5919 5920 5918 5917 5917 5916 5915 5914 5913 5912 5911 5910 5909 5907 5906 5905 5904 5903 5902 5900 5899 5898 5897 5896 5895 5895 5894 5893 5892 5891 5890 5890 5889 5888 5888 5887 5886 5886 5885 5884 5882 5881
5905 5908 5909 5911 5913 5915 5916 5917 5918 5917 5916 5916 5915 5914 5914 5913 5912 5911 5910 5909 5908 5907 5906 5905 5904 5903 5901 5900 5899 5898 5897 5896 5896 5895 5894 5893 5892 5891 5890 5889 5888 5888 5887 5886 5885 5884 5883 5882 5881
5901 5905 5908 5909 5911 5913 5913 5913 5916 5915 5915 5915 5915 5914 5913 5913 5912 5911 5910 5910 5909 5908 5907 5906 5905 5903 5902 5901 5900 5899 5898 5897 5896 5895 5894 5893 5892 5891 5890 5889 5888 5887 5886 5885 5884 5883 5882 5881 5880
5897 5902 5905 5908 5910 5911 5910 5910 5913 5912 5912 5913 5913 5913 5913 5912 5911 5911 5910 5909 5909 5908 5907 5906 5905 5904 5902 5901 5900 5899 5898 5897 5896 5895 5894 5893 5892 5891 5890 5889 5888 5887 5886 5885 5884 5882 5881 5880 5878
5892 5896 5900 5903 5905 5906 5907 5908 5908 5909 5910 5911 5911 5911 5911 5911 5910 5910 5909 5909 5908 5907 5907 5906 5905 5904 5902 5901 5900 5899 5898 5897 5896 5895 5894 5893 5892 5890 5889 5888 5887 5886 5885 5884 5882 5881 5880 5878 5877
5888 5891 5894 5897 5899 5902 5904 5904 5906 5905 5907 5908 5908 5909 5909 5909 5909 5908 5908 5908 5907 5907 5906 5905 5904 5903 5902 5901 5900 5898 5897 5896 5895 5894 5893 5892 5891 5890 5889 5888 5887 5886 5884 5883 5881 5880 5878 5876 5874
5882 5885 5888 5891 5894 5897 5900 5903 5902 5902 5903 5904 5905 5906 5906 5907 5906 5906 5906 5906 5906 5905 5905 5904 5903 5902 5901 5900 5899 5898 5897 5896 5895 5893 5892 5891 5890 5889 5888 5887 5886 5884 5883 5881 5879 5878 5876 5874 5872
5875 5878 5882 5885 5887 5890 5894 5899 5897 5897 5898 5900 5901 5902 5903 5903 5903 5903 5903 5903 5903 5903 5903 5903 5902 5901 5900 5899 5898 5897 5896 5894 5894 5893 5891 5890 5889 5888 5887 5885 5884 5883 5881 5879 5877 5875 5873 5871 5869